Mountain Loop
White Chuck
Latest observation 08/31 20:00 PDT
| Time (PDT) | Temp °F 5030' | RH % 5030' | Min mph 5030' | Spd mph 5030' | Gust mph 5030' | Dir ° 5030' | SnoHt in 5030' | SR W/m² 5030' |
|---|---|---|---|---|---|---|---|---|
| 08/31 20:00 | 59 | 59 | 0 | 0 | 2 | 118 | 0.5 | 17 |
| 08/31 19:00 | 61 | 56 | 0 | 0 | 2 | 34 | 0.6 | 41 |
| 08/31 18:00 | 62 | 56 | 0 | 0 | 3 | 299 | 0.7 | 66 |
| 08/31 17:00 | 62 | 55 | 0 | 0 | 2 | 112 | 1.0 | 71 |
| 08/31 16:00 | 64 | 53 | 0 | 1 | 3 | 294 | 0.1 | 406 |
| 08/31 15:00 | 65 | 51 | 0 | 1 | 4 | 311 | 0.1 | 620 |
| 08/31 14:00 | 65 | 51 | 0 | 1 | 5 | 289 | 0.4 | 629 |
| 08/31 13:00 | 64 | 48 | 0 | 1 | 6 | 325 | 0.5 | 625 |
| 08/31 12:00 | 63 | 50 | 0 | 1 | 5 | 116 | 0.7 | 617 |
| 08/31 11:00 | 62 | 53 | 0 | 1 | 6 | 251 | 0.8 | 518 |
| 08/31 10:00 | 60 | 56 | 0 | 1 | 5 | 265 | 0.8 | 334 |
| 08/31 09:00 | 57 | 64 | 0 | 0 | 3 | 140 | 0.7 | 94 |
| 08/31 08:00 | 54 | 67 | 0 | 0 | 5 | 81 | 0.8 | 56 |
| 08/31 07:00 | 51 | 72 | 0 | 0 | 3 | 96 | 0.9 | 9 |
| 08/31 06:00 | 50 | 74 | 0 | 0 | 4 | 118 | 0.7 | 0 |
| 08/31 05:00 | 49 | 76 | 0 | 0 | 2 | 166 | 0.8 | 0 |
| 08/31 04:00 | 48 | 75 | 0 | 1 | 2 | 114 | 0.7 | 0 |
| 08/31 03:00 | 46 | 85 | 0 | 0 | 2 | 101 | 0.7 | 0 |
| 08/31 02:00 | 44 | 90 | 0 | 1 | 2 | 95 | 0.7 | 0 |
| 08/31 01:00 | 42 | 98 | 0 | 1 | 2 | 80 | 0.8 | 0 |
| 08/31 00:00 | 42 | 98 | 0 | 0 | 2 | 74 | 1.0 | 0 |
| 08/30 23:00 | 42 | 99 | 0 | 2 | 3 | 65 | 1.0 | 0 |
| 08/30 22:00 | 42 | 100 | 0 | 2 | 4 | 66 | 1.1 | 0 |
| 08/30 21:00 | 43 | 99 | 0 | 1 | 2 | 73 | 1.2 | 0 |
| 08/30 20:00 | 44 | 95 | 0 | 0 | 2 | 58 | 1.2 | 10 |
| 08/30 19:00 | 45 | 94 | 0 | 0 | 1 | 7 | 1.2 | 48 |
| 08/30 18:00 | 45 | 94 | 0 | 0 | 2 | 358 | 1.2 | 100 |
| 08/30 17:00 | 46 | 92 | 0 | 1 | 2 | 314 | 1.2 | 139 |
| 08/30 16:00 | 45 | 93 | 0 | 0 | 3 | 318 | 1.1 | 121 |
| 08/30 15:00 | 46 | 91 | 0 | 1 | 4 | 312 | 1.3 | 206 |
| 08/30 14:00 | 46 | 88 | 0 | 1 | 2 | 314 | 1.2 | 234 |
| 08/30 13:00 | 43 | 93 | 0 | 0 | 3 | 313 | 1.2 | 139 |
| 08/30 12:00 | 42 | 95 | 0 | 0 | 2 | 324 | 1.1 | 132 |
| 08/30 11:00 | 42 | 96 | 0 | 0 | 2 | 316 | 1.2 | 128 |
| 08/30 10:00 | 41 | 98 | 0 | 0 | 4 | 302 | 0.8 | 157 |
| 08/30 09:00 | 40 | 100 | 0 | 0 | 2 | 323 | 1.1 | 48 |
| 08/30 08:00 | 39 | 100 | 0 | 1 | 3 | 297 | 0.9 | 26 |
| 08/30 07:00 | 39 | 100 | 0 | 0 | 2 | 257 | 0.8 | 4 |
| 08/30 06:00 | 39 | 100 | 0 | 0 | 1 | 69 | 1.0 | 0 |
| 08/30 05:00 | 39 | 99 | 0 | 0 | 2 | 328 | 1.0 | 0 |
| 08/30 04:00 | 40 | 99 | 0 | 0 | 2 | 171 | 0.9 | 0 |
| 08/30 03:00 | 40 | 99 | 0 | 0 | 1 | 125 | 1.0 | 0 |
| 08/30 02:00 | 40 | 100 | 0 | 0 | 3 | 109 | 1.0 | 0 |
| 08/30 01:00 | 40 | 99 | 0 | 0 | 1 | 198 | 1.0 | 0 |
| 08/30 00:00 | 40 | 97 | 0 | 0 | 4 | 203 | 0.8 | 0 |
| 08/29 23:00 | 39 | 97 | 0 | 0 | 3 | 182 | 0.9 | 0 |
| 08/29 22:00 | 39 | 94 | 0 | 0 | 3 | 131 | 0.7 | 0 |
| 08/29 21:00 | 39 | 99 | 0 | 1 | 3 | 248 | 0.7 | 0 |
| 08/29 20:00 | 40 | 98 | 0 | 1 | 4 | 147 | 1.0 | 20 |
| 08/29 19:00 | 42 | 99 | 0 | 1 | 4 | 156 | 0.8 | 53 |
| 08/29 18:00 | 43 | 98 | 0 | 0 | 3 | 229 | 0.9 | 97 |
| 08/29 17:00 | 44 | 98 | 0 | 1 | 3 | 263 | 0.9 | 206 |
| 08/29 16:00 | 43 | 100 | 0 | 0 | 3 | 226 | 1.1 | 121 |
| 08/29 15:00 | 43 | 99 | 0 | 0 | 3 | 190 | 0.3 | 126 |
| 08/29 14:00 | 41 | 100 | 0 | 1 | 8 | 166 | 1.1 | 112 |
| 08/29 13:00 | 40 | 100 | 0 | 1 | 6 | 217 | 1.2 | 74 |
| 08/29 12:00 | 40 | 99 | 0 | 1 | 6 | 175 | 1.5 | 51 |
| 08/29 11:00 | 41 | 100 | 0 | 1 | 4 | 152 | 1.4 | 74 |
| 08/29 10:00 | 41 | 100 | 0 | 1 | 5 | 157 | 1.2 | 99 |
| 08/29 09:00 | 40 | 100 | 0 | 0 | 4 | 185 | 1.4 | 32 |
| 08/29 08:00 | 40 | 100 | 0 | 0 | 3 | 205 | 0.7 | 6 |
| 08/29 07:00 | 41 | 100 | 0 | 0 | 1 | 193 | 1.2 | 2 |
| 08/29 06:00 | 42 | 100 | 0 | 0 | 1 | 200 | 1.3 | 0 |
| 08/29 05:00 | 42 | 100 | 0 | 0 | 2 | 247 | 1.5 | 0 |
| 08/29 04:00 | 43 | 100 | 0 | 0 | 2 | 224 | 0.8 | 0 |
| 08/29 03:00 | 43 | 99 | 0 | 0 | 2 | 173 | 0.4 | 0 |
| 08/29 02:00 | 44 | 98 | 0 | 0 | 2 | 256 | 2.0 | 0 |
| 08/29 01:00 | 45 | 98 | 0 | 0 | 2 | 258 | -1.1 | 0 |
| 08/29 00:00 | 45 | 98 | 0 | 0 | 1 | 249 | -0.9 | 0 |
| 08/28 23:00 | 45 | 97 | 0 | 0 | 1 | 248 | -1.1 | 0 |
| 08/28 22:00 | 45 | 98 | 0 | 0 | 2 | 248 | -1.2 | 0 |
| 08/28 21:00 | 46 | 97 | 0 | 0 | 2 | 247 | -0.6 | 0 |
| 08/28 20:00 | 47 | 96 | 0 | 0 | 3 | 238 | 0.2 | 5 |
| 08/28 19:00 | 49 | 89 | 0 | 0 | 3 | 243 | -0.1 | 53 |
| 08/28 18:00 | 50 | 86 | 0 | 1 | 3 | 263 | 0.2 | 116 |
| 08/28 17:00 | 53 | 79 | 0 | 1 | 5 | 272 | 0.8 | 193 |
| 08/28 16:00 | 55 | 74 | 0 | 1 | 5 | 258 | 1.0 | 450 |
| 08/28 15:00 | 56 | 70 | 0 | 1 | 4 | 268 | 0.7 | 579 |
| 08/28 14:00 | 56 | 69 | 0 | 2 | 5 | 293 | 1.2 | 645 |
| 08/28 13:00 | 53 | 76 | 0 | 1 | 3 | 256 | 1.0 | 370 |
| 08/28 12:00 | 53 | 78 | 0 | 1 | 3 | 286 | 0.8 | 436 |
| 08/28 11:00 | 49 | 88 | 0 | 1 | 4 | 300 | 1.0 | 258 |
| 08/28 10:00 | 46 | 97 | 0 | 0 | 0 | 199 | 0.6 | 110 |
| 08/28 09:00 | 45 | 99 | 0 | 0 | 0 | 180 | 0.5 | 57 |
| 08/28 08:00 | 45 | 99 | 0 | 0 | 1 | 155 | 0.2 | 12 |
| 08/28 07:00 | 45 | 99 | 0 | 0 | 0 | 155 | 0.3 | 2 |
| 08/28 06:00 | 44 | 96 | 0 | 0 | 0 | 155 | 0.2 | 0 |
| 08/28 05:00 | 44 | 98 | 0 | 0 | 0 | 155 | 0.6 | 0 |
| 08/28 04:00 | 45 | 98 | 0 | 0 | 0 | 155 | 0.6 | 0 |
| 08/28 03:00 | 44 | 99 | 0 | 0 | 1 | 203 | 0.7 | 0 |
| 08/28 02:00 | 44 | 99 | 0 | 0 | 0 | 235 | -0.5 | 0 |
| 08/28 01:00 | 46 | 97 | 0 | 0 | 0 | 235 | 0.2 | 0 |
| 08/28 00:00 | 46 | 97 | 0 | 0 | 1 | 235 | 0.0 | 0 |
| 08/27 23:00 | 46 | 96 | 0 | 0 | 0 | 234 | 0.2 | 0 |
| 08/27 22:00 | 47 | 95 | 0 | 0 | 2 | 255 | -0.9 | 0 |
| 08/27 21:00 | 47 | 94 | 0 | 0 | 1 | 273 | -0.9 | 0 |
| 08/27 20:00 | 48 | 93 | 0 | 0 | 1 | 259 | 0.8 | 5 |
| 08/27 19:00 | 48 | 91 | 0 | 0 | 1 | 278 | 0.6 | 19 |
| 08/27 18:00 | 49 | 87 | 0 | 1 | 3 | 276 | 1.2 | 55 |
| 08/27 17:00 | 50 | 88 | 0 | 0 | 2 | 252 | 0.8 | 92 |
| 08/27 16:00 | 50 | 89 | 0 | 0 | 3 | 241 | 0.5 | 105 |
| 08/27 15:00 | 51 | 88 | 0 | 1 | 2 | 268 | 0.4 | 184 |
| 08/27 14:00 | 51 | 84 | 0 | 1 | 2 | 267 | 0.4 | 201 |
| 08/27 13:00 | 51 | 85 | 0 | 1 | 4 | 251 | 0.7 | 230 |
| 08/27 12:00 | 55 | 64 | 0 | 1 | 5 | 269 | 0.6 | 561 |
| 08/27 11:00 | 51 | 74 | 0 | 0 | 2 | 268 | 0.9 | 206 |
| 08/27 10:00 | 50 | 79 | 0 | 0 | 4 | 273 | 1.4 | 156 |
| 08/27 09:00 | 49 | 82 | 0 | 0 | 2 | 227 | 0.3 | 71 |
| 08/27 08:00 | 50 | 82 | 0 | 0 | 3 | 236 | 0.2 | 69 |
| 08/27 07:00 | 48 | 89 | 0 | 0 | 3 | 283 | 0.4 | 4 |
| 08/27 06:00 | 49 | 84 | 0 | 0 | 3 | 297 | 0.1 | 0 |
| 08/27 05:00 | 50 | 82 | 0 | 0 | 2 | 280 | 0.4 | 0 |
| 08/27 04:00 | 50 | 80 | 0 | 0 | 4 | 270 | -0.0 | 0 |
| 08/27 03:00 | 50 | 83 | 0 | 0 | 1 | 251 | 0.5 | 0 |
| 08/27 02:00 | 51 | 85 | 0 | 0 | 1 | 267 | -0.0 | 0 |
| 08/27 01:00 | 51 | 85 | 0 | 0 | 0 | 258 | 0.4 | 0 |
| 08/27 00:00 | 51 | 84 | 0 | 0 | 0 | 250 | 0.1 | 0 |
| 08/26 23:00 | 52 | 81 | 0 | 0 | 1 | 280 | 0.1 | 0 |
| 08/26 22:00 | 53 | 77 | 0 | 0 | 2 | 256 | -0.0 | 0 |
| 08/26 21:00 | 55 | 72 | 0 | 0 | 3 | 234 | 0.3 | 0 |
| 08/26 20:00 | 55 | 66 | 0 | 0 | 1 | 200 | 0.6 | 19 |
| 08/26 19:00 | 57 | 68 | 0 | 0 | 1 | 258 | 0.5 | 50 |
| 08/26 18:00 | 60 | 56 | 0 | 0 | 2 | 262 | 0.7 | 73 |
| 08/26 17:00 | 62 | 45 | 0 | 1 | 3 | 195 | 0.6 | 109 |
| 08/26 16:00 | 66 | 55 | 0 | 1 | 5 | 252 | -0.2 | 503 |
| 08/26 15:00 | 66 | 55 | 0 | 1 | 4 | 273 | 0.2 | 607 |
| 08/26 14:00 | 66 | 58 | 0 | 0 | 4 | 261 | 0.3 | 656 |
| 08/26 13:00 | 65 | 59 | 0 | 1 | 3 | 260 | 0.6 | 667 |
| 08/26 12:00 | 64 | 58 | 0 | 0 | 3 | 203 | 0.7 | 630 |
| 08/26 11:00 | 65 | 59 | 0 | 0 | 2 | 210 | 0.5 | 541 |
| 08/26 10:00 | 63 | 57 | 0 | 0 | 2 | 246 | 0.3 | 419 |
| 08/26 09:00 | 59 | 57 | 0 | 0 | 1 | 164 | 0.5 | 86 |
| 08/26 08:00 | 60 | 50 | 0 | 0 | 0 | 129 | -0.0 | 100 |
| 08/26 07:00 | 59 | 44 | 0 | 0 | 1 | 115 | 1.6 | 8 |
| 08/26 06:00 | 60 | 45 | 0 | 0 | 1 | 83 | 0.4 | 0 |
| 08/26 05:00 | 60 | 42 | 0 | 0 | 1 | 105 | 0.3 | 0 |
| 08/26 04:00 | 59 | 41 | 0 | 0 | 2 | 151 | 0.7 | 0 |
| 08/26 03:00 | 59 | 43 | 0 | 0 | 2 | 156 | 1.1 | 0 |
| 08/26 02:00 | 61 | 35 | 0 | 0 | 2 | 157 | 1.0 | 0 |
| 08/26 01:00 | 60 | 35 | 0 | 0 | 1 | 152 | 0.9 | 0 |
| 08/26 00:00 | 59 | 66 | 0 | 0 | 1 | 176 | 0.5 | 0 |
| 08/25 23:00 | 60 | 42 | 0 | 0 | 1 | 186 | 0.5 | 0 |
| 08/25 22:00 | 59 | 51 | 0 | 0 | 1 | 171 | -0.1 | 0 |
| 08/25 21:00 | 60 | 59 | 0 | 1 | 2 | 171 | 0.2 | 0 |
| 08/25 20:00 | 60 | 70 | 0 | 0 | 1 | 215 | 0.2 | 17 |
| 08/25 19:00 | 63 | 68 | 0 | 0 | 1 | 253 | 0.2 | 54 |
| 08/25 18:00 | 67 | 61 | 0 | 0 | 2 | 262 | 0.1 | 97 |
| 08/25 17:00 | 69 | 53 | 0 | 1 | 4 | 270 | 0.3 | 140 |
| 08/25 16:00 | 75 | 36 | 0 | 1 | 4 | 302 | -0.1 | 505 |
| 08/25 15:00 | 75 | 28 | 0 | 1 | 3 | 311 | 0.2 | 545 |
| 08/25 14:00 | 74 | 29 | 0 | 1 | 5 | 345 | 0.8 | 617 |
| 08/25 13:00 | 74 | 30 | 0 | 1 | 4 | 329 | 0.3 | 648 |
| 08/25 12:00 | 74 | 30 | 0 | 1 | 4 | 257 | 0.6 | 628 |
| 08/25 11:00 | 72 | 32 | 0 | 1 | 4 | 312 | 0.5 | 546 |
| 08/25 10:00 | 71 | 33 | 0 | 1 | 3 | 51 | 0.4 | 442 |
| 08/25 09:00 | 66 | 37 | 0 | 1 | 3 | 63 | 1.0 | 93 |
| 08/25 08:00 | 65 | 38 | 0 | 1 | 4 | 80 | 1.0 | 125 |
| 08/25 07:00 | 63 | 35 | 0 | 2 | 6 | 79 | 0.4 | 9 |
| 08/25 06:00 | 63 | 36 | 0 | 2 | 6 | 78 | 0.8 | 0 |
| 08/25 05:00 | 63 | 36 | 0 | 2 | 6 | 82 | 0.9 | 0 |
| 08/25 04:00 | 63 | 37 | 0 | 2 | 7 | 80 | 1.0 | 0 |
| 08/25 03:00 | 63 | 37 | 0 | 2 | 7 | 81 | 0.5 | 0 |
| 08/25 02:00 | 63 | 36 | 0 | 2 | 8 | 80 | 0.8 | 0 |
| 08/25 01:00 | 64 | 36 | 0 | 2 | 7 | 91 | 0.7 | 0 |
| 08/25 00:00 | 63 | 39 | 0 | 1 | 5 | 124 | 0.7 | 0 |
| 08/24 23:00 | 63 | 40 | 0 | 1 | 3 | 139 | 0.9 | 0 |
| 08/24 22:00 | 63 | 43 | 0 | 0 | 2 | 166 | 1.1 | 0 |
| 08/24 21:00 | 64 | 44 | 0 | 0 | 1 | 144 | 0.8 | 1 |

